KG4IFE-13 Weather Reports


Display with metric or nautical units.
time (UTC)temp
F
wind
direction
speed
MPH
gust
MPH
rain 1hr
in
rain 24hr
in
rain mn
in
humidity
%
barometer
mb
20260502130645 48 322 1.0 2.0 0.00 0.00 0.00 59 1014.8
20260502130135 48 322 1.0 2.0 0.00 0.00 0.00 59 1014.8
20260502123622 48 323 1.0 2.0 0.00 0.00 0.00 59 1014.7
20260502123119 48 323 1.0 2.0 0.00 0.00 0.00 59 1014.7
20260502122649 48 324 1.0 2.0 0.00 0.00 0.00 59 1014.6
20260502122117 48 324 1.0 2.0 0.00 0.00 0.00 59 1014.6
20260502121615 48 320 1.0 2.0 0.00 0.00 0.00 59 1014.6
20260502121125 48 320 1.0 2.0 0.00 0.00 0.00 59 1014.6
20260502120634 48 330 1.0 3.0 0.00 0.00 0.00 58 1014.4
20260502120111 48 330 1.0 3.0 0.00 0.00 0.00 58 1014.4
20260502115623 48 332 1.0 2.0 0.00 0.00 0.00 57 1014.4
20260502115111 48 332 1.0 2.0 0.00 0.00 0.00 57 1014.4
20260502114619 48 325 1.0 2.0 0.00 0.00 0.00 56 1014.2
20260502114120 48 325 1.0 2.0 0.00 0.00 0.00 56 1014.2
20260502113628 48 315 1.0 2.0 0.00 0.00 0.00 56 1014.2
20260502113108 48 315 1.0 2.0 0.00 0.00 0.00 56 1014.2
20260502112616 48 329 1.0 2.0 0.00 0.00 0.00 55 1014.1
20260502112105 48 329 1.0 2.0 0.00 0.00 0.00 55 1014.1
20260502111604 48 323 1.0 2.0 0.00 0.00 0.00 55 1014.2
20260502111104 48 323 1.0 2.0 0.00 0.00 0.00 55 1014.2
20260502110601 48 315 1.0 2.0 0.00 0.00 0.00 55 1014.0
20260502110130 48 315 1.0 2.0 0.00 0.00 0.00 55 1014.0
20260502105559 48 315 1.0 2.0 0.00 0.00 0.00 55 1014.1
20260502105129 48 315 1.0 2.0 0.00 0.00 0.00 55 1014.1
20260502104558 49 323 1.0 3.0 0.00 0.00 0.00 55 1014.1
20260502104056 49 323 1.0 3.0 0.00 0.00 0.00 55 1014.1
20260502103556 49 315 1.0 2.0 0.00 0.00 0.00 55 1014.3
20260502103106 49 315 1.0 2.0 0.00 0.00 0.00 55 1014.3
20260502102604 49 320 1.0 2.0 0.00 0.00 0.00 56 1014.2
20260502102053 49 320 1.0 2.0 0.00 0.00 0.00 56 1014.2
20260502101551 49 315 1.0 1.0 0.00 0.00 0.00 56 1014.3
20260502101052 49 315 1.0 1.0 0.00 0.00 0.00 56 1014.3
20260502100550 49 315 1.0 2.0 0.00 0.00 0.00 57 1014.2
20260502091038 50 336 1.0 1.0 0.00 0.00 0.00 60 1014.2
20260502090538 50 270 1.0 3.0 0.00 0.00 0.00 62 1014.1
20260502071516 51 329 1.0 4.0 0.00 0.00 0.00 67 1013.7
20260502071014 51 315 1.0 2.0 0.00 0.00 0.00 66 1013.7
20260502070515 51 315 1.0 2.0 0.00 0.00 0.00 66 1013.7
20260502070015 51 315 1.0 3.0 0.00 0.00 0.00 66 1013.8
20260502065512 51 315 1.0 3.0 0.00 0.00 0.00 66 1013.8
20260502065009 52 315 1.0 2.0 0.00 0.00 0.00 65 1013.8
20260502064509 52 315 1.0 2.0 0.00 0.00 0.00 65 1013.8
20260502064010 52 335 1.0 4.0 0.00 0.00 0.00 65 1013.9
20260502063510 52 335 1.0 4.0 0.00 0.00 0.00 65 1013.9
20260502063009 52 326 1.0 4.0 0.00 0.00 0.00 64 1014.0
20260502062525 52 326 1.0 4.0 0.00 0.00 0.00 64 1014.0
20260502062004 53 315 1.0 3.0 0.00 0.00 0.00 64 1014.0
20260502061536 53 315 1.0 3.0 0.00 0.00 0.00 64 1014.0
20260502061002 53 344 1.0 4.0 0.00 0.00 0.00 64 1014.1
20260502060523 53 344 1.0 4.0 0.00 0.00 0.00 64 1014.1
20260502060000 53 329 1.0 4.0 0.00 0.00 0.00 63 1014.1
20260502055458 53 329 1.0 4.0 0.00 0.00 0.00 63 1014.1
20260502054958 53 331 1.0 4.0 0.00 0.00 0.00 63 1013.9
20260502053958 53 319 1.0 3.0 0.00 0.00 0.00 63 1014.0
20260502053015 54 325 1.0 5.0 0.00 0.00 0.00 63 1013.9
20260502052534 54 325 1.0 5.0 0.00 0.00 0.00 63 1013.9
20260502052013 54 329 1.0 4.0 0.00 0.00 0.00 63 1013.9
20260502051451 54 329 1.0 4.0 0.00 0.00 0.00 63 1013.9
20260502050952 54 336 1.0 4.0 0.00 0.00 0.00 64 1013.9
20260502050452 54 336 1.0 4.0 0.00 0.00 0.00 64 1013.9
20260502045507 55 331 1.0 4.0 0.00 0.00 0.00 65 1014.0
20260502045007 55 322 1.0 4.0 0.00 0.00 0.00 65 1014.0
20260502044507 55 322 1.0 4.0 0.00 0.00 0.00 65 1014.0
20260502044045 55 333 1.0 1.0 0.00 0.00 0.00 65 1013.9
20260502043443 55 333 1.0 1.0 0.00 0.00 0.00 65 1013.9
20260502043002 55 334 1.0 3.0 0.00 0.00 0.00 65 1013.8
20260502042501 55 334 1.0 3.0 0.00 0.00 0.00 65 1013.8
20260502041940 56 315 1.0 3.0 0.00 0.00 0.00 64 1013.8
20260502041438 56 315 1.0 3.0 0.00 0.00 0.00 64 1013.8
20260502040941 56 324 1.0 2.0 0.00 0.00 0.00 64 1013.8
20260502040437 56 324 1.0 2.0 0.00 0.00 0.00 64 1013.8
20260502035937 56 320 1.0 2.0 0.00 0.00 0.00 63 1013.8
20260502035435 56 320 1.0 2.0 0.00 0.00 0.00 63 1013.8
20260502034945 57 330 1.0 2.0 0.00 0.00 0.00 62 1013.8
20260502034454 57 330 1.0 2.0 0.00 0.00 0.00 62 1013.8
20260502033944 57 306 1.0 1.0 0.00 0.00 0.00 61 1013.6
20260502033432 57 306 1.0 1.0 0.00 0.00 0.00 61 1013.6
20260502032930 58 270 1.0 1.0 0.00 0.00 0.00 60 1013.3
20260502032429 58 270 1.0 1.0 0.00 0.00 0.00 60 1013.3
20260502031939 58 315 1.0 2.0 0.00 0.00 0.00 59 1013.1
20260502031427 58 315 1.0 2.0 0.00 0.00 0.00 59 1013.1
20260502030926 59 322 1.0 1.0 0.00 0.00 0.00 60 1013.0
20260502030424 59 322 1.0 1.0 0.00 0.00 0.00 60 1013.0
20260502025945 59 315 1.0 1.0 0.00 0.00 0.00 59 1013.1
20260502025423 59 315 1.0 1.0 0.00 0.00 0.00 59 1013.1
20260502024933 60 329 1.0 2.0 0.00 0.00 0.00 58 1012.9
20260502024420 60 329 1.0 2.0 0.00 0.00 0.00 58 1012.9
20260502023920 60 327 1.0 3.0 0.00 0.00 0.00 58 1012.6
20260502023419 60 327 1.0 3.0 0.00 0.00 0.00 58 1012.6
20260502022940 60 320 1.0 3.0 0.00 0.00 0.00 61 1012.3
20260502022417 60 320 1.0 3.0 0.00 0.00 0.00 61 1012.3
20260502021926 60 216 1.0 2.0 0.00 0.00 0.00 62 1011.9
20260502021415 60 216 1.0 2.0 0.00 0.00 0.00 62 1011.9
20260502020914 59 353 1.0 1.0 0.00 0.00 0.00 61 1011.8
20260502020414 59 353 1.0 1.0 0.00 0.00 0.00 61 1011.8
20260502015912 60 5 1.0 2.0 0.00 0.00 0.00 61 1011.7
20260502015412 60 5 1.0 2.0 0.00 0.00 0.00 61 1011.7
20260502014909 60 270 1.0 1.0 0.00 0.00 0.00 59 1011.7
20260502014409 60 270 1.0 1.0 0.00 0.00 0.00 59 1011.7
20260502013908 60 188 2.0 6.0 0.00 0.00 0.00 60 1011.6
20260502013407 60 188 2.0 6.0 0.00 0.00 0.00 60 1011.6
20260502012906 60 175 3.0 6.0 0.00 0.00 0.00 59 1011.4
20260502012405 60 175 3.0 6.0 0.00 0.00 0.00 59 1011.4
20260502011904 60 202 1.0 4.0 0.00 0.00 0.00 58 1011.3
20260502011404 60 202 1.0 4.0 0.00 0.00 0.00 58 1011.3
20260502010902 61 197 1.0 4.0 0.00 0.00 0.00 57 1011.2
20260502010401 61 197 1.0 4.0 0.00 0.00 0.00 57 1011.2
20260502005920 61 164 4.0 11.0 0.00 0.00 0.00 57 1011.0
20260502005400 61 164 4.0 11.0 0.00 0.00 0.00 57 1011.0
20260502004858 60 216 1.0 2.0 0.00 0.00 0.00 58 1010.9
20260502004358 60 216 1.0 2.0 0.00 0.00 0.00 58 1010.9
20260502003907 61 270 1.0 1.0 0.00 0.00 0.00 57 1010.8
20260502003355 61 270 1.0 1.0 0.00 0.00 0.00 57 1010.8
20260502002905 61 8 1.0 4.0 0.00 0.00 0.00 57 1010.3
20260502002403 61 8 1.0 4.0 0.00 0.00 0.00 57 1010.3
20260502001852 61 181 1.0 4.0 0.00 0.00 0.00 56 1010.1
20260502001350 61 181 1.0 4.0 0.00 0.00 0.00 56 1010.1
20260502000849 62 183 4.0 9.0 0.00 0.00 0.00 55 1009.8
20260502000350 62 183 4.0 9.0 0.00 0.00 0.00 55 1009.8
20260501235848 62 173 4.0 10.0 0.00 0.00 0.00 55 1009.6
20260501235428 62 173 4.0 10.0 0.00 0.00 0.00 55 1009.6
20260501234846 62 181 4.0 14.0 0.00 0.00 0.00 54 1009.8
20260501234345 62 181 4.0 14.0 0.00 0.00 0.00 54 1009.8
20260501233905 62 171 4.0 11.0 0.00 0.00 0.00 54 1009.8
20260501233343 62 171 4.0 11.0 0.00 0.00 0.00 54 1009.8
20260501232852 63 177 4.0 11.0 0.00 0.00 0.00 54 1009.8
20260501232341 63 177 4.0 11.0 0.00 0.00 0.00 54 1009.8
20260501231843 63 173 2.0 7.0 0.00 0.00 0.00 53 1009.9
20260501231338 63 173 2.0 7.0 0.00 0.00 0.00 53 1009.9
20260501230839 64 176 4.0 9.0 0.00 0.00 0.00 52 1009.9
20260501230338 64 176 4.0 9.0 0.00 0.00 0.00 52 1009.9
20260501225855 64 190 4.0 9.0 0.00 0.00 0.00 52 1009.9
20260501225345 64 190 4.0 9.0 0.00 0.00 0.00 52 1009.9
20260501224915 65 161 4.0 9.0 0.00 0.00 0.00 52 1009.8
20260501224404 65 161 4.0 9.0 0.00 0.00 0.00 52 1009.8
20260501223833 65 173 4.0 8.0 0.00 0.00 0.00 51 1009.9
20260501223331 65 173 4.0 8.0 0.00 0.00 0.00 51 1009.9
20260501222830 65 172 4.0 8.0 0.00 0.00 0.00 50 1010.0
20260501222340 65 172 4.0 8.0 0.00 0.00 0.00 50 1010.0
20260501221849 65 174 4.0 11.0 0.00 0.00 0.00 50 1010.0
20260501221327 65 174 4.0 11.0 0.00 0.00 0.00 50 1010.0
20260501220848 65 175 3.0 7.0 0.00 0.00 0.00 51 1010.1
20260501220338 65 175 3.0 7.0 0.00 0.00 0.00 51 1010.1
20260501215825 65 191 4.0 10.0 0.00 0.00 0.00 49 1010.2
20260501215324 65 191 4.0 10.0 0.00 0.00 0.00 49 1010.2
20260501214821 65 163 4.0 10.0 0.00 0.00 0.00 49 1010.2
20260501214322 65 163 4.0 10.0 0.00 0.00 0.00 49 1010.2
20260501213820 66 178 3.0 7.0 0.00 0.00 0.00 50 1010.3
20260501213321 66 178 3.0 7.0 0.00 0.00 0.00 50 1010.3
20260501212838 66 180 4.0 10.0 0.00 0.00 0.00 49 1010.4
20260501212319 66 180 4.0 10.0 0.00 0.00 0.00 49 1010.4
20260501211816 66 171 4.0 11.0 0.00 0.00 0.00 49 1010.4
20260501211315 66 171 4.0 11.0 0.00 0.00 0.00 49 1010.4
20260501210815 66 178 4.0 14.0 0.00 0.00 0.00 48 1010.5
20260501210333 66 178 4.0 14.0 0.00 0.00 0.00 48 1010.5
20260501205814 67 180 6.0 13.0 0.00 0.00 0.00 46 1010.6
20260501205312 67 180 6.0 13.0 0.00 0.00 0.00 46 1010.6
20260501204830 67 171 4.0 12.0 0.00 0.00 0.00 46 1010.8
20260501204310 67 171 4.0 12.0 0.00 0.00 0.00 46 1010.8
20260501203829 67 182 5.0 15.0 0.00 0.00 0.00 46 1010.9
20260501203308 67 182 5.0 15.0 0.00 0.00 0.00 46 1010.9
20260501202848 67 188 4.0 11.0 0.00 0.00 0.00 46 1011.1
20260501202306 67 188 4.0 11.0 0.00 0.00 0.00 46 1011.1
20260501201826 67 168 5.0 11.0 0.00 0.00 0.00 46 1011.3
20260501201314 67 168 5.0 11.0 0.00 0.00 0.00 46 1011.3
20260501200823 67 183 3.0 11.0 0.00 0.00 0.00 47 1011.4
20260501200302 67 183 3.0 11.0 0.00 0.00 0.00 47 1011.4
20260501195801 67 193 4.0 8.0 0.00 0.00 0.00 47 1011.7
20260501195259 67 193 4.0 8.0 0.00 0.00 0.00 47 1011.7
20260501194809 67 181 4.0 11.0 0.00 0.00 0.00 45 1011.9
20260501194318 67 181 4.0 11.0 0.00 0.00 0.00 45 1011.9
20260501193756 67 174 4.0 11.0 0.00 0.00 0.00 46 1011.9
20260501193257 67 174 4.0 11.0 0.00 0.00 0.00 46 1011.9
20260501192755 67 169 4.0 8.0 0.00 0.00 0.00 48 1012.2
20260501192255 67 169 4.0 8.0 0.00 0.00 0.00 48 1012.2
20260501191753 66 171 4.0 9.0 0.00 0.00 0.00 47 1012.4
20260501191251 66 171 4.0 9.0 0.00 0.00 0.00 47 1012.4
20260501190752 66 171 4.0 9.0 0.00 0.00 0.00 47 1012.4
20260501190310 66 174 4.0 11.0 0.00 0.00 0.00 45 1012.4
20260501185749 66 182 4.0 12.0 0.00 0.00 0.00 46 1012.6
20260501185246 66 182 4.0 12.0 0.00 0.00 0.00 46 1012.6
20260501184746 66 185 4.0 12.0 0.00 0.00 0.00 46 1012.7
20260501184247 66 185 4.0 12.0 0.00 0.00 0.00 46 1012.7
20260501183743 66 155 4.0 12.0 0.00 0.00 0.00 48 1013.0
20260501183243 66 155 4.0 12.0 0.00 0.00 0.00 48 1013.0
20260501182743 66 178 4.0 7.0 0.00 0.00 0.00 48 1013.2
20260501182242 66 178 4.0 7.0 0.00 0.00 0.00 48 1013.2
20260501181740 66 166 3.0 7.0 0.00 0.00 0.00 47 1013.3
20260501181259 66 166 3.0 7.0 0.00 0.00 0.00 47 1013.3
20260501180739 66 166 3.0 7.0 0.00 0.00 0.00 47 1013.3
20260501180258 66 191 4.0 7.0 0.00 0.00 0.00 47 1013.7
20260501175756 66 191 4.0 7.0 0.00 0.00 0.00 47 1013.7
20260501175235 65 172 3.0 8.0 0.00 0.00 0.00 47 1013.7
20260501174744 65 172 3.0 8.0 0.00 0.00 0.00 47 1013.7
20260501174232 65 178 4.0 7.0 0.00 0.00 0.00 47 1013.9
20260501173731 65 178 4.0 7.0 0.00 0.00 0.00 47 1013.9
20260501173232 65 90 2.0 7.0 0.00 0.00 0.00 50 1014.0
20260501172730 65 90 2.0 7.0 0.00 0.00 0.00 50 1014.0
20260501172229 64 163 4.0 7.0 0.00 0.00 0.00 49 1014.2
20260501171728 64 163 4.0 7.0 0.00 0.00 0.00 49 1014.2
20260501171227 64 171 2.0 9.0 0.00 0.00 0.00 50 1014.5
20260501170747 64 171 2.0 9.0 0.00 0.00 0.00 50 1014.5
20260501165727 64 161 2.0 14.0 0.00 0.00 0.00 50 1014.6
20260501164722 63 172 4.0 11.0 0.00 0.00 0.00 50 1014.9
20260501164258 63 172 4.0 11.0 0.00 0.00 0.00 50 1014.9
20260501163741 62 178 3.0 7.0 0.00 0.00 0.00 51 1015.0
20260501163245 62 178 3.0 7.0 0.00 0.00 0.00 51 1015.0
20260501162718 62 161 3.0 6.0 0.00 0.00 0.00 52 1015.2
20260501162217 62 161 3.0 6.0 0.00 0.00 0.00 52 1015.2
20260501161726 61 187 4.0 11.0 0.00 0.00 0.00 52 1015.2
20260501161226 61 187 4.0 11.0 0.00 0.00 0.00 52 1015.2
20260501160716 60 168 2.0 7.0 0.00 0.00 0.00 54 1015.4
20260501160237 60 168 2.0 7.0 0.00 0.00 0.00 54 1015.4
20260501155732 59 188 4.0 9.0 0.00 0.00 0.00 53 1015.6
20260501155212 59 188 4.0 9.0 0.00 0.00 0.00 53 1015.6
20260501154711 59 144 2.0 6.0 0.00 0.00 0.00 54 1015.7
20260501154209 59 144 2.0 6.0 0.00 0.00 0.00 54 1015.7
20260501153802 58 184 3.0 10.0 0.00 0.00 0.00 55 1015.7
20260501153207 58 184 3.0 10.0 0.00 0.00 0.00 55 1015.7
20260501152708 57 149 3.0 7.0 0.00 0.00 0.00 56 1015.8
20260501152226 57 149 3.0 7.0 0.00 0.00 0.00 56 1015.8
20260501151718 57 138 1.0 7.0 0.00 0.00 0.00 57 1015.8
20260501151225 57 138 1.0 7.0 0.00 0.00 0.00 57 1015.8
20260501150704 56 187 2.0 5.0 0.00 0.00 0.00 60 1015.9
20260501150221 56 187 2.0 5.0 0.00 0.00 0.00 60 1015.9
20260501145711 55 66 2.0 6.0 0.00 0.00 0.00 60 1016.0
20260501144217 55 38 2.0 4.0 0.00 0.00 0.00 60 1016.0
20260501143658 54 138 1.0 4.0 0.00 0.00 0.00 61 1016.0
20260501143155 54 138 1.0 4.0 0.00 0.00 0.00 61 1016.0